TimeCDT,TemperatureF,Dew PointF,Humidity,Sea Level PressureIn,VisibilityMPH,Wind Direction,Wind SpeedMPH,Gust SpeedMPH,PrecipitationIn,Events,Conditions,WindDirDegrees,DateUTC
12:52 AM,34.0,30.9,89,30.09,10.0,West,5.8,-,N/A,,Partly Cloudy,280,2013-03-14 05:52:00
1:52 AM,34.0,30.9,89,30.08,-9999.0,West,4.6,-,N/A,,Clear,270,2013-03-14 06:52:00
2:52 AM,37.0,32.0,82,30.07,10.0,WSW,9.2,-,N/A,,Clear,250,2013-03-14 07:52:00
3:52 AM,37.9,32.0,79,30.09,10.0,West,9.2,-,N/A,,Clear,280,2013-03-14 08:52:00
4:52 AM,35.1,30.9,85,30.09,10.0,West,8.1,-,N/A,,Clear,270,2013-03-14 09:52:00
5:52 AM,37.0,30.9,79,30.10,10.0,WNW,9.2,-,N/A,,Clear,300,2013-03-14 10:52:00
7:52 AM,37.9,30.0,73,30.16,10.0,WNW,10.4,-,N/A,,Clear,300,2013-03-14 12:52:00
8:52 AM,39.0,30.9,73,30.19,10.0,NW,9.2,-,N/A,,Clear,320,2013-03-14 13:52:00
9:52 AM,44.1,33.1,65,30.20,10.0,West,6.9,-,N/A,,Clear,280,2013-03-14 14:52:00
10:52 AM,51.1,34.0,52,30.22,10.0,WNW,4.6,-,N/A,,Clear,290,2013-03-14 15:52:00
11:52 AM,55.9,34.0,44,30.19,10.0,NW,4.6,-,N/A,,Clear,320,2013-03-14 16:52:00
12:52 PM,59.0,35.1,41,30.19,10.0,West,8.1,-,N/A,,Clear,260,2013-03-14 17:52:00
1:52 PM,60.1,35.1,39,30.17,10.0,WSW,9.2,-,N/A,,Clear,250,2013-03-14 18:52:00
2:52 PM,64.0,34.0,33,30.14,10.0,West,9.2,-,N/A,,Clear,260,2013-03-14 19:52:00
3:52 PM,66.9,30.9,26,30.11,10.0,West,11.5,-,N/A,,Clear,260,2013-03-14 20:52:00
4:52 PM,66.0,34.0,30,30.09,10.0,SW,8.1,-,N/A,,Clear,220,2013-03-14 21:52:00
5:52 PM,66.0,35.1,32,30.07,10.0,SSW,5.8,-,N/A,,Clear,210,2013-03-14 22:52:00
6:52 PM,64.9,37.9,37,30.05,10.0,South,4.6,-,N/A,,Clear,180,2013-03-14 23:52:00
7:52 PM,55.9,39.0,53,30.05,10.0,SSE,6.9,-,N/A,,Clear,150,2013-03-15 00:52:00
8:52 PM,53.1,37.0,55,30.04,10.0,Calm,Calm,-,N/A,,Clear,0,2013-03-15 01:52:00
9:52 PM,46.9,36.0,66,30.01,10.0,SSW,3.5,-,N/A,,Clear,210,2013-03-15 02:52:00
10:52 PM,50.0,35.1,57,29.99,10.0,SSW,9.2,-,N/A,,Clear,210,2013-03-15 03:52:00
11:52 PM,44.1,35.1,71,29.97,10.0,SW,8.1,-,N/A,,Clear,220,2013-03-15 04:52:00